NUSAT-4 (ADA) (43195 NORAD) Tracking and Keplerian Element Data

This shows tracking and keplerian element data for the satellite.

Feedback or suggestion? Click here.




ElementValue
Catalog43195
NameNUSAT-4 (ADA)
Epoch Orbit9041
Epoch Day262.16666874
Epoch Year2019
RAAN28.4887
Inclination97.4075
Eccentricity0.0017459
Argument of Perigee340.4308
Mean Anonmoly142.2747
Mean Motion15.23910469
Decay Rate7.76E-06
L11 43195U 18015D 19262.16666874 .00000776 00000-0 34966-4 0 9993
L22 43195 97.4075 28.4887 0017459 340.4308 142.2747 15.23910469 90412

Live tracking and technical data element details for NUSAT-4 (ADA) (NORAD 43195). NUSAT-4 (ADA) can be tracked NOW for your location showing map with azimuth and elevation plus other details from your city location.

Track the satellite on the map from your city or location and see movement details for azimuth, elevation, latitude, longitude, range, height, and movement on the map or in text.







IsCatalogInMostPopularTable: catalog: 43195, numindb: 303
Update: records affected: 1



GetName: 43195 NUSAT-4 (ADA)

Hit Count: updated at: Thu, 19 Sep 2019 16:46:33 GMT